GW4373 Weather Reports


Display with metric or nautical units.
time (UTC)temp
F
wind
direction
speed
MPH
gust
MPH
rain 1hr
in
rain 24hr
in
rain mn
in
humidity
%
barometer
mb
20260507070126 52 54 0.0 0.0 0.00 0.00 0.00 89 1016.1
20260507065622 52 54 0.0 0.0 0.00 0.00 0.00 89 1015.7
20260507065119 52 54 0.0 0.0 0.00 0.00 0.00 89 1015.7
20260507064617 53 54 0.0 0.0 0.00 0.00 0.00 88 1015.7
20260507064116 53 54 0.0 0.0 0.00 0.00 0.00 88 1015.7
20260507063613 53 54 0.0 0.0 0.00 0.00 0.00 88 1015.7
20260507063110 53 54 0.0 0.0 0.00 0.00 0.00 88 1015.7
20260507062606 53 54 0.0 0.0 0.00 0.00 0.00 87 1015.7
20260507062104 53 54 0.0 0.0 0.00 0.00 0.00 87 1015.7
20260507061601 53 54 0.0 0.0 0.00 0.00 0.00 87 1015.4
20260507061100 53 54 0.0 0.0 0.00 0.00 0.00 87 1015.4
20260507060557 54 54 0.0 0.0 0.00 0.00 0.00 87 1015.4
20260507060053 54 54 0.0 0.0 0.00 0.00 0.00 86 1015.4
20260507055553 54 54 0.0 0.0 0.00 0.00 0.00 86 1015.1
20260507055050 54 54 0.0 0.0 0.00 0.00 0.00 86 1015.1
20260507054546 54 54 0.0 0.0 0.00 0.00 0.00 85 1015.1
20260507054043 54 54 0.0 0.0 0.00 0.00 0.00 85 1015.1
20260507053541 55 54 0.0 0.0 0.00 0.00 0.00 84 1015.1
20260507053040 55 54 0.0 0.0 0.00 0.00 0.00 84 1015.1
20260507052537 55 54 0.0 0.0 0.00 0.00 0.00 84 1015.1
20260507052033 55 54 0.0 0.0 0.00 0.00 0.00 83 1015.1
20260507051531 55 54 0.0 0.0 0.00 0.00 0.00 83 1015.4
20260507051028 55 54 0.0 0.0 0.00 0.00 0.00 83 1015.1
20260507050524 55 54 0.0 0.0 0.00 0.00 0.00 83 1015.1
20260507050021 55 54 0.0 0.0 0.00 0.02 0.02 82 1015.1
20260507045518 56 54 0.0 0.0 0.00 0.02 0.02 81 1015.4
20260507045015 56 54 0.0 0.0 0.00 0.02 0.02 81 1015.4
20260507044512 56 54 0.0 0.0 0.00 0.02 0.02 80 1015.4
20260507044008 56 54 0.0 0.0 0.00 0.02 0.02 80 1015.4
20260507043504 56 54 0.0 0.0 0.00 0.02 0.02 79 1015.4
20260507043001 57 54 2.0 2.0 0.00 0.02 0.02 79 1015.4
20260507042458 57 54 0.0 0.0 0.00 0.02 0.02 78 1015.4
20260507041953 57 54 2.0 2.0 0.00 0.02 0.02 78 1015.4
20260507041450 57 63 0.0 0.0 0.00 0.02 0.02 77 1015.1
20260507040947 58 84 0.0 0.0 0.00 0.02 0.02 76 1015.4
20260507040443 58 29 2.0 2.0 0.00 0.02 0.02 76 1015.4
20260507035939 58 60 0.0 0.0 0.00 0.02 0.02 76 1015.4
20260507035436 58 61 0.0 0.0 0.00 0.02 0.02 76 1015.4
20260507034933 58 76 0.0 0.0 0.00 0.02 0.02 76 1015.4
20260507034430 58 68 0.0 0.0 0.00 0.02 0.02 76 1015.7
20260507033928 58 312 2.0 2.0 0.00 0.02 0.02 75 1015.4
20260507033425 59 78 2.0 2.0 0.00 0.02 0.02 75 1015.4
20260507032922 59 54 4.0 4.0 0.00 0.02 0.02 75 1015.4
20260507032419 59 38 2.0 2.0 0.00 0.02 0.02 75 1015.4
20260507031915 59 300 2.0 2.0 0.00 0.02 0.02 75 1015.7
20260507031412 59 35 0.0 0.0 0.00 0.02 0.02 75 1015.1
20260507030908 59 72 2.0 2.0 0.00 0.02 0.02 75 1015.4
20260507030406 59 49 2.0 2.0 0.00 0.02 0.02 75 1015.1
20260507025902 59 46 2.0 2.0 0.00 0.02 0.02 75 1015.4
20260507025400 60 19 0.0 0.0 0.00 0.02 0.02 75 1015.1
20260507024858 60 20 4.0 4.0 0.00 0.02 0.02 74 1015.1
20260507024355 60 54 2.0 2.0 0.00 0.02 0.02 74 1015.1
20260507023850 60 17 2.0 2.0 0.00 0.02 0.02 74 1015.1
20260507023347 60 21 3.0 3.0 0.00 0.02 0.02 73 1015.1
20260507022845 60 336 2.0 2.0 0.00 0.02 0.02 73 1014.7
20260507022341 60 342 2.0 2.0 0.00 0.02 0.02 73 1014.7
20260507021837 60 288 2.0 2.0 0.00 0.02 0.02 73 1014.7
20260507021332 60 29 2.0 2.0 0.00 0.02 0.02 73 1014.7
20260507020831 60 60 6.0 7.0 0.00 0.02 0.02 73 1014.4
20260507020327 60 23 3.0 3.0 0.00 0.02 0.02 74 1014.4
20260507015824 60 42 2.0 2.0 0.00 0.02 0.02 74 1014.4
20260507015322 61 288 2.0 2.0 0.00 0.02 0.02 74 1014.1
20260507014819 61 51 2.0 2.0 0.00 0.02 0.02 74 1013.7
20260507014315 61 355 2.0 2.0 0.00 0.02 0.02 74 1013.4
20260507013812 61 355 2.0 2.0 0.00 0.02 0.02 75 1013.7
20260507013309 61 347 2.0 2.0 0.00 0.02 0.02 74 1013.4
20260507012807 61 14 2.0 2.0 0.00 0.02 0.02 74 1013.0
20260507012305 61 24 3.0 3.0 0.00 0.02 0.02 74 1013.4
20260507011800 62 50 3.0 3.0 0.00 0.02 0.02 74 1013.4
20260507011256 62 42 2.0 2.0 0.00 0.02 0.02 75 1013.0
20260507010755 62 78 2.0 2.0 0.00 0.02 0.02 75 1013.4
20260507010252 62 44 0.0 0.0 0.00 0.02 0.02 75 1012.7
20260507005749 62 6 2.0 2.0 0.00 0.02 0.02 74 1012.7
20260507005246 62 61 3.0 3.0 0.00 0.02 0.02 73 1012.7
20260507004742 62 30 2.0 2.0 0.00 0.02 0.02 74 1013.0
20260507004240 62 306 3.0 3.0 0.00 0.02 0.02 74 1012.7
20260507003736 62 42 2.0 2.0 0.00 0.02 0.02 74 1012.7
20260507003231 62 72 2.0 2.0 0.00 0.02 0.02 73 1012.7
20260507002728 63 42 3.0 3.0 0.00 0.02 0.02 73 1012.7
20260507002224 63 19 2.0 2.0 0.00 0.02 0.02 73 1012.7
20260507001721 63 57 3.0 3.0 0.00 0.02 0.02 72 1012.7
20260507001218 63 47 2.0 2.0 0.00 0.02 0.02 73 1012.4
20260507000714 63 55 3.0 3.0 0.00 0.02 0.02 72 1012.0
20260507000212 63 300 2.0 2.0 0.00 0.02 0.02 73 1012.0
20260506235707 63 18 2.0 2.0 0.00 0.02 0.02 72 1012.0
20260506235202 63 54 2.0 2.0 0.00 0.02 0.02 72 1012.0
20260506234700 63 37 6.0 6.0 0.00 0.02 0.02 71 1012.0
20260506234157 63 54 2.0 2.0 0.00 0.02 0.02 72 1012.0
20260506233654 63 30 2.0 2.0 0.00 0.02 0.02 72 1012.4
20260506233151 64 81 2.0 2.0 0.00 0.02 0.02 72 1012.0
20260506232647 64 12 5.0 6.0 0.00 0.02 0.02 72 1012.0
20260506232142 64 72 2.0 2.0 0.00 0.02 0.02 70 1012.0
20260506231640 64 41 3.0 3.0 0.00 0.02 0.02 72 1012.0
20260506231138 64 55 0.0 0.0 0.00 0.02 0.02 73 1011.6
20260506230635 64 60 7.0 7.0 0.00 0.02 0.02 71 1012.0
20260506230132 65 318 3.0 3.0 0.00 0.02 0.02 71 1011.6
20260506225628 65 312 2.0 2.0 0.00 0.02 0.02 70 1011.6
20260506225125 65 359 3.0 3.0 0.00 0.02 0.02 70 1011.6
20260506224621 65 288 3.0 3.0 0.00 0.02 0.02 70 1011.6
20260506224118 65 72 5.0 6.0 0.00 0.02 0.02 70 1011.6
20260506223614 65 12 3.0 4.0 0.00 0.02 0.02 69 1011.6
20260506223110 65 44 4.0 4.0 0.00 0.02 0.02 69 1011.6
20260506222607 65 43 3.0 4.0 0.00 0.02 0.02 71 1011.6
20260506222104 65 28 3.0 4.0 0.00 0.02 0.02 69 1011.6
20260506221602 66 312 5.0 5.0 0.00 0.02 0.02 69 1011.6
20260506221059 66 302 0.0 0.0 0.00 0.02 0.02 68 1011.2
20260506220555 65 30 3.0 3.0 0.00 0.02 0.02 69 1011.2
20260506220051 66 31 4.0 4.0 0.00 0.02 0.02 68 1011.6
20260506215548 66 326 3.0 4.0 0.00 0.02 0.02 68 1011.2
20260506215043 66 36 2.0 2.0 0.00 0.02 0.02 69 1011.2
20260506214541 65 33 2.0 2.0 0.00 0.02 0.02 68 1011.6
20260506214038 65 72 2.0 2.0 0.00 0.02 0.02 69 1011.6
20260506213536 65 26 2.0 2.0 0.00 0.02 0.02 69 1011.6
20260506213033 66 321 2.0 2.0 0.00 0.02 0.02 67 1011.6
20260506212529 65 318 0.0 0.0 0.00 0.02 0.02 71 1012.4
20260506212024 64 10 0.0 0.0 0.00 0.02 0.02 69 1012.4
20260506211520 65 66 4.0 5.0 0.00 0.02 0.02 70 1011.6
20260506211018 65 24 0.0 0.0 0.00 0.02 0.02 71 1011.2
20260506210514 65 330 3.0 3.0 0.00 0.02 0.02 69 1011.2
20260506210011 65 54 3.0 3.0 0.00 0.02 0.02 68 1011.6
20260506205508 64 306 2.0 2.0 0.00 0.02 0.02 69 1011.6
20260506205003 64 66 4.0 4.0 0.00 0.02 0.02 71 1012.0
20260506204502 64 320 1.0 1.0 0.00 0.02 0.02 72 1012.0
20260506203958 64 66 0.0 0.0 0.00 0.02 0.02 71 1012.0
20260506203456 65 29 3.0 3.0 0.00 0.02 0.02 68 1012.0
20260506202947 64 31 2.0 2.0 0.00 0.02 0.02 71 1012.0
20260506202444 64 312 2.0 2.0 0.00 0.02 0.02 68 1012.4
20260506201940 63 31 3.0 3.0 0.00 0.02 0.02 70 1012.4
20260506201438 63 96 0.0 0.0 0.00 0.02 0.02 70 1012.7
20260506200935 63 312 0.0 0.0 0.00 0.02 0.02 69 1012.7
20260506200431 64 78 2.0 2.0 0.00 0.02 0.02 70 1012.7
20260506195927 63 95 0.0 0.0 0.00 0.02 0.02 71 1012.7
20260506195425 63 300 0.0 0.0 0.00 0.02 0.02 69 1012.7
20260506194921 63 294 0.0 0.0 0.00 0.02 0.02 72 1012.7
20260506194418 62 294 2.0 2.0 0.00 0.02 0.02 70 1012.7
20260506193915 62 40 0.0 0.0 0.00 0.02 0.02 74 1012.7
20260506193412 61 48 0.0 0.0 0.00 0.02 0.02 72 1012.7
20260506192908 61 78 2.0 2.0 0.00 0.02 0.02 73 1013.0
20260506192405 62 30 0.0 0.0 0.00 0.02 0.02 73 1013.0
20260506191902 62 31 2.0 2.0 0.00 0.02 0.02 72 1012.7
20260506191358 62 75 0.0 0.0 0.00 0.02 0.02 73 1012.7
20260506190855 61 78 0.0 0.0 0.00 0.02 0.02 72 1012.7
20260506190352 61 62 0.0 0.0 0.00 0.02 0.02 74 1012.4
20260506185848 60 42 5.0 5.0 0.00 0.02 0.02 74 1012.4
20260506185345 60 306 4.0 5.0 0.00 0.02 0.02 74 1012.4
20260506184842 59 318 2.0 2.0 0.00 0.02 0.02 75 1012.4
20260506184339 60 252 3.0 3.0 0.00 0.02 0.02 76 1012.0
20260506183837 59 330 2.0 2.0 0.00 0.02 0.02 76 1011.6
20260506183332 59 31 5.0 6.0 0.00 0.02 0.02 75 1012.4
20260506182830 59 23 2.0 2.0 0.00 0.02 0.02 77 1012.0
20260506182326 58 25 3.0 3.0 0.00 0.02 0.02 75 1012.4
20260506181824 58 60 3.0 4.0 0.00 0.02 0.02 77 1012.4
20260506181322 58 24 4.0 4.0 0.00 0.02 0.02 76 1012.4
20260506180819 58 51 5.0 6.0 0.00 0.02 0.02 77 1012.4
20260506180315 57 324 2.0 2.0 0.00 0.02 0.02 79 1012.4
20260506175811 57 48 2.0 2.0 0.00 0.02 0.02 81 1012.4
20260506175308 57 6 3.0 3.0 0.00 0.02 0.02 79 1012.4
20260506174801 56 66 2.0 2.0 0.00 0.02 0.02 80 1012.4
20260506174258 56 40 5.0 6.0 0.00 0.02 0.02 80 1012.0
20260506173755 56 30 5.0 5.0 0.00 0.02 0.02 81 1012.0
20260506173252 56 30 5.0 5.0 0.00 0.02 0.02 81 1012.4
20260506172749 56 66 2.0 2.0 0.00 0.02 0.02 82 1012.4
20260506172245 56 38 3.0 4.0 0.00 0.02 0.02 82 1012.7
20260506171743 55 346 4.0 4.0 0.00 0.02 0.02 82 1012.7
20260506171240 55 30 5.0 6.0 0.00 0.02 0.02 83 1012.7
20260506170738 55 29 3.0 4.0 0.00 0.02 0.02 84 1013.0
20260506170234 55 72 3.0 3.0 0.00 0.02 0.02 86 1013.0
20260506165732 55 68 2.0 2.0 0.00 0.02 0.02 86 1013.4
20260506165229 55 68 2.0 2.0 0.00 0.02 0.02 85 1013.4
20260506164726 55 0 0.0 0.0 0.00 0.02 0.02 85 1013.4
20260506164223 55 49 2.0 2.0 0.00 0.02 0.02 85 1013.4
20260506163720 55 314 2.0 2.0 0.00 0.02 0.02 86 1013.0
20260506163215 55 359 3.0 3.0 0.00 0.02 0.02 86 1012.7
20260506162711 55 318 2.0 2.0 0.00 0.02 0.02 86 1012.7
20260506162208 55 42 2.0 2.0 0.00 0.02 0.02 87 1012.7
20260506161705 54 300 2.0 2.0 0.00 0.02 0.02 87 1013.0
20260506161202 55 288 2.0 2.0 0.00 0.02 0.02 88 1013.4
20260506160700 55 324 2.0 2.0 0.00 0.02 0.02 88 1012.7
20260506160156 55 288 1.0 1.0 0.00 0.02 0.02 88 1012.7
20260506155655 55 48 4.0 4.0 0.02 0.02 0.02 88 1012.4
20260506155152 54 288 0.0 0.0 0.02 0.02 0.02 87 1014.1
20260506153259 54 276 0.0 0.0 0.02 0.02 0.02 88 1014.1
20260506152756 54 276 0.0 0.0 0.00 0.00 0.00 87 1014.1
20260506152253 54 318 3.0 4.0 0.00 0.00 0.00 86 1014.1
20260506151752 54 318 2.0 2.0 0.00 0.00 0.00 86 1014.1
20260506151248 54 337 0.0 0.0 0.00 0.00 0.00 85 1014.4
20260506150745 54 306 0.0 0.0 0.00 0.00 0.00 84 1014.1
20260506150242 54 42 0.0 0.0 0.00 0.00 0.00 85 1013.4
20260506145739 54 75 0.0 0.0 0.00 0.00 0.00 85 1013.4
20260506145235 54 306 0.0 0.0 0.00 0.00 0.00 85 1012.7
20260506144733 53 354 2.0 2.0 0.00 0.00 0.00 86 1012.4
20260506144230 53 72 5.0 6.0 0.00 0.00 0.00 86 1012.4
20260506143727 54 27 5.0 5.0 0.00 0.00 0.00 85 1013.0
20260506143225 54 66 2.0 2.0 0.00 0.00 0.00 85 1013.0
20260506142723 54 72 1.0 1.0 0.00 0.00 0.00 84 1013.0
20260506142221 54 294 2.0 2.0 0.00 0.00 0.00 84 1013.0
20260506141719 54 312 0.0 0.0 0.00 0.00 0.00 84 1013.0
20260506141217 54 37 2.0 2.0 0.00 0.00 0.00 84 1012.7
20260506140714 54 306 3.0 3.0 0.00 0.00 0.00 84 1013.0
20260506140211 54 12 2.0 2.0 0.00 0.00 0.00 83 1013.0
20260506135708 54 40 2.0 2.0 0.00 0.00 0.00 84 1012.0
20260506135204 53 318 3.0 3.0 0.00 0.00 0.00 83 1012.0
20260506134701 54 56 4.0 5.0 0.00 0.00 0.00 83 1012.0
20260506134157 53 348 3.0 3.0 0.00 0.00 0.00 84 1012.0
20260506133654 53 357 4.0 5.0 0.00 0.00 0.00 84 1012.0
20260506133151 53 318 2.0 2.0 0.00 0.00 0.00 84 1012.4
20260506132648 53 72 2.0 2.0 0.00 0.00 0.00 84 1012.4
20260506132145 53 336 4.0 4.0 0.00 0.00 0.00 84 1012.0
20260506131643 53 318 4.0 4.0 0.00 0.00 0.00 84 1012.0
20260506131139 53 306 4.0 4.0 0.00 0.00 0.00 84 1011.6
20260506130636 53 67 5.0 5.0 0.00 0.00 0.00 84 1012.0
20260506130133 53 12 0.0 0.0 0.00 0.00 0.00 84 1011.6
20260506125631 53 324 0.0 0.0 0.00 0.00 0.00 84 1011.6
20260506125128 53 326 2.0 2.0 0.00 0.00 0.00 85 1011.6
20260506124626 53 318 2.0 2.0 0.00 0.00 0.00 85 1011.2
20260506124124 53 44 3.0 3.0 0.00 0.00 0.00 84 1011.6
20260506123621 53 324 2.0 2.0 0.00 0.00 0.00 85 1011.6
20260506123120 53 54 2.0 2.0 0.00 0.00 0.00 84 1011.2
20260506122616 53 318 4.0 4.0 0.00 0.00 0.00 84 1011.2
20260506122114 53 318 2.0 2.0 0.00 0.00 0.00 84 1011.2
20260506121612 53 324 2.0 2.0 0.00 0.00 0.00 84 1011.2
20260506121108 53 324 3.0 3.0 0.00 0.00 0.00 84 1011.6
20260506120606 53 300 4.0 4.0 0.00 0.00 0.00 84 1011.6
20260506115601 53 294 4.0 4.0 0.00 0.00 0.00 83 1011.2
20260506115059 53 312 3.0 3.0 0.00 0.00 0.00 83 1011.2
20260506114556 53 306 5.0 5.0 0.00 0.00 0.00 83 1011.2
20260506114054 53 300 3.0 3.0 0.00 0.00 0.00 82 1010.9
20260506113552 53 312 4.0 4.0 0.00 0.00 0.00 82 1010.9
20260506113049 53 318 6.0 6.0 0.00 0.00 0.00 82 1010.2
20260506112545 54 336 2.0 2.0 0.00 0.00 0.00 81 1010.2
20260506112043 54 26 4.0 4.0 0.00 0.00 0.00 80 1010.2
20260506111541 54 312 4.0 4.0 0.00 0.00 0.00 79 1010.2
20260506111038 55 318 5.0 6.0 0.00 0.00 0.00 78 1010.2
20260506110535 55 331 2.0 2.0 0.00 0.00 0.00 77 1010.2
20260506110033 55 288 2.0 2.0 0.00 0.00 0.00 77 1009.9
20260506105528 55 67 3.0 3.0 0.00 0.00 0.00 77 1009.9
20260506105026 55 330 3.0 3.0 0.00 0.00 0.00 77 1009.9
20260506104524 55 72 4.0 4.0 0.00 0.00 0.00 77 1009.9
20260506104021 55 288 3.0 3.0 0.00 0.00 0.00 77 1009.9
20260506103518 55 36 4.0 5.0 0.00 0.00 0.00 77 1009.9
20260506103015 56 318 3.0 3.0 0.00 0.00 0.00 76 1009.6
20260506102514 56 300 3.0 4.0 0.00 0.00 0.00 76 1009.6
20260506102010 56 324 4.0 4.0 0.00 0.00 0.00 75 1009.6
20260506101507 56 72 2.0 2.0 0.00 0.00 0.00 76 1009.9
20260506101004 56 312 3.0 3.0 0.00 0.00 0.00 76 1009.6
20260506100502 56 288 3.0 4.0 0.00 0.00 0.00 76 1009.2
20260506100000 56 325 3.0 3.0 0.00 0.00 0.00 76 1008.9
20260506095459 56 332 2.0 2.0 0.00 0.00 0.00 76 1008.9
20260506094954 56 286 3.0 3.0 0.00 0.00 0.00 76 1009.2
20260506094453 56 47 1.0 1.0 0.00 0.00 0.00 76 1008.9
20260506093950 56 342 2.0 2.0 0.00 0.00 0.00 75 1009.2
20260506093448 56 331 3.0 3.0 0.00 0.00 0.00 76 1008.9
20260506092945 56 342 3.0 3.0 0.00 0.00 0.00 76 1008.9
20260506092443 56 38 2.0 2.0 0.00 0.00 0.00 76 1008.9
20260506091939 56 19 5.0 6.0 0.00 0.00 0.00 75 1008.5
20260506091438 56 342 2.0 2.0 0.00 0.00 0.00 75 1008.9
20260506090935 56 318 3.0 3.0 0.00 0.00 0.00 76 1008.9
20260506090432 56 348 2.0 2.0 0.00 0.00 0.00 76 1008.9
20260506085929 56 326 3.0 3.0 0.00 0.00 0.00 75 1008.9
20260506085426 57 306 3.0 3.0 0.00 0.00 0.00 75 1008.2
20260506084922 57 348 0.0 0.0 0.00 0.00 0.00 75 1008.5
20260506084419 57 306 3.0 4.0 0.00 0.00 0.00 76 1008.2
20260506083915 57 330 2.0 2.0 0.00 0.00 0.00 76 1008.5
20260506083413 57 336 2.0 2.0 0.00 0.00 0.00 76 1008.2
20260506082910 57 306 4.0 4.0 0.00 0.00 0.00 76 1008.5
20260506082407 57 44 2.0 2.0 0.00 0.00 0.00 77 1008.2
20260506081902 57 300 2.0 2.0 0.00 0.00 0.00 77 1008.5
20260506081401 57 37 0.0 0.0 0.00 0.00 0.00 78 1008.5
20260506080858 57 12 0.0 0.0 0.00 0.00 0.00 78 1008.5
20260506080355 57 41 2.0 2.0 0.00 0.00 0.00 78 1008.2
20260506073338 57 48 2.0 2.0 0.00 0.00 0.00 78 1007.5
20260506072835 57 41 1.0 1.0 0.00 0.00 0.00 78 1007.9
20260506072333 58 72 4.0 5.0 0.00 0.00 0.00 78 1007.9
20260506071831 58 312 2.0 2.0 0.00 0.00 0.00 78 1007.9
20260506071329 58 57 5.0 6.0 0.00 0.00 0.00 78 1007.9
20260506070825 58 320 2.0 2.0 0.00 0.00 0.00 78 1007.5